Wind_Speed
26 24 22 21 21 22 21 21 22 22 23 25 24 26 26 25 26 27 27 27 28 27 25 25 26 25 27 27 28 29 30 31 30 22 24 26 28 29 26 25 21 18 18
24 23 21 20 20 21 20 20 22 22 23 23 22 21 22 23 24 25 26 27 29 30 28 29 28 28 28 28 29 29 30 31 33 27 23 25 28 29 28 25 21 18 17
25 23 21 21 22 21 20 21 21 22 21 23 22 22 22 23 24 25 26 26 27 28 30 32 30 32 30 30 30 31 31 32 31 31 24 25 27 29 27 27 21 18 17
24 23 23 23 22 22 22 22 21 21 22 23 23 23 24 25 25 25 25 26 27 28 29 31 32 33 32 31 32 34 33 32 32 31 27 24 26 27 28 27 23 19 16
26 25 24 24 24 24 25 25 23 23 23 23 23 24 25 26 27 28 28 28 28 28 30 31 32 33 34 34 34 33 34 34 33 31 29 26 23 26 27 26 23 20 17
27 26 26 24 25 26 28 28 27 27 26 25 25 24 24 25 27 29 31 32 34 34 33 33 33 34 34 34 34 35 34 36 35 31 29 27 24 25 26 23 24 20 17
30 29 28 28 28 30 31 31 31 31 30 29 28 27 26 26 28 31 34 37 38 39 40 39 38 36 35 36 36 37 36 37 35 33 30 27 27 26 26 22 23 22 19
35 33 31 31 31 33 34 34 34 35 34 33 31 31 31 30 32 33 35 38 36 33 35 36 39 41 38 37 39 38 38 38 37 33 31 27 27 27 25 24 20 21 21
39 34 32 35 36 37 37 36 37 39 38 36 36 35 35 34 36 36 38 38 39 35 34 33 31 35 38 40 44 40 38 36 35 34 34 30 28 26 24 23 20 22 21
34 34 35 36 39 39 39 39 40 42 42 41 40 39 40 39 37 39 39 41 41 38 37 37 36 39 35 40 43 45 38 34 34 33 36 33 31 27 24 22 23 20 23
33 35 37 38 39 40 42 43 45 46 45 45 44 42 41 40 39 40 40 42 41 43 44 43 41 40 37 39 43 44 36 34 34 37 37 34 30 27 24 24 22 22 22
38 39 41 42 45 46 47 46 46 45 44 45 45 45 43 42 41 39 40 38 43 47 42 43 40 37 37 35 39 41 35 31 39 39 36 33 28 25 24 26 24 21 20
42 41 41 42 42 43 45 46 49 49 49 48 47 48 47 43 40 43 42 43 50 49 45 42 40 37 34 33 31 38 37 38 42 42 33 29 24 26 29 28 24 21 20
44 43 42 43 42 42 45 47 49 52 52 51 50 50 49 45 45 43 46 50 47 43 44 42 36 36 32 32 32 34 35 37 39 39 31 28 28 30 30 26 24 23 22
44 44 45 45 43 42 42 43 45 46 45 45 46 46 45 42 40 46 45 46 42 35 36 33 35 35 35 34 29 28 31 33 34 36 31 28 29 29 29 27 25 25 22
44 45 46 46 44 42 41 40 40 41 41 40 38 38 39 42 44 44 47 39 33 35 34 33 32 33 33 32 30 29 29 27 32 35 33 29 29 30 29 29 27 25 22
45 46 47 48 47 45 42 39 37 37 34 33 34 37 40 43 46 42 32 33 31 30 33 35 32 36 31 31 30 30 30 29 31 35 36 34 31 31 31 30 28 25 24
45 46 47 46 45 43 41 39 36 34 33 34 37 40 39 38 27 30 34 37 36 35 37 36 35 35 33 30 29 30 31 30 31 36 37 35 32 32 33 30 29 25 24
44 44 44 43 41 39 36 33 32 32 34 33 33 33 30 27 30 32 31 30 29 28 28 30 31 33 33 32 31 29 30 30 30 34 37 36 35 33 34 31 28 27 27
42 41 41 41 40 37 34 31 30 31 31 31 29 24 23 28 25 25 28 31 33 32 31 31 29 27 30 31 32 32 28 29 31 33 35 35 35 35 33 32 29 29 28
39 41 42 40 37 33 31 29 29 29 26 21 20 27 26 25 27 28 30 32 33 33 33 32 32 32 29 27 29 32 32 29 28 32 33 35 36 36 33 32 30 30 29
43 43 40 38 34 30 28 26 25 21 18 22 24 22 25 27 29 29 30 31 32 34 36 35 32 31 31 31 32 32 32 32 30 31 33 34 35 37 34 34 32 31 30
38 36 34 33 30 24 23 21 20 19 19 18 21 24 25 26 27 30 32 32 36 38 35 32 33 35 40 43 41 38 35 33 33 32 32 33 34 35 35 34 33 31 30
31 31 30 28 23 22 21 19 17 15 15 19 21 22 23 26 29 32 33 35 35 31 34 42 45 45 45 43 41 38 38 34 34 33 33 32 33 34 35 35 34 32 31
28 26 24 22 22 21 19 16 12 13 17 19 19 21 24 27 30 33 35 39 36 39 43 39 33 33 32 30 29 30 33 33 35 33 33 33 32 33 33 34 34 33 31
23 23 21 21 21 18 15 10 11 14 17 18 19 22 25 28 31 35 38 41 38 42 37 31 29 28 26 24 22 23 25 29 33 33 32 33 31 32 33 32 32 32 31
Wind_Direction
307 303 303 302 299 298 299 297 296 296 293 293 291 287 283 277 275 279 281 281 279 277 275 275 276 277 278 280 283 286 290 291 295 300 301 302 307 308 311 308 292 289 300
305 304 303 302 297 298 298 299 299 299 299 297 297 294 289 284 279 281 281 283 282 281 280 276 278 276 276 275 276 279 282 286 291 297 300 300 304 305 309 307 291 285 295
311 306 302 299 300 299 301 303 305 303 302 300 299 298 296 292 289 288 285 283 282 279 277 278 278 278 279 277 276 275 277 280 286 292 297 299 301 303 306 307 291 279 289
312 306 303 302 300 299 303 306 307 306 304 301 300 299 295 291 291 287 284 283 282 282 279 278 278 277 277 275 273 273 274 276 280 284 289 293 296 299 304 306 294 274 282
313 309 304 300 298 301 304 305 307 307 304 301 299 296 294 291 290 289 288 287 284 281 280 281 279 277 276 275 276 275 274 273 274 279 283 286 292 295 300 304 298 272 277
315 310 305 300 300 302 304 305 308 309 307 304 299 297 296 296 294 291 291 290 289 286 283 281 280 279 278 276 274 275 272 272 273 273 277 282 287 289 294 302 299 272 269
318 311 305 302 301 301 302 304 305 306 306 305 304 303 301 301 299 298 297 294 291 290 288 285 283 282 281 280 274 270 270 269 268 272 274 278 279 283 290 295 297 278 266
316 312 303 298 297 296 298 300 301 301 303 303 303 302 302 304 302 303 302 298 296 296 293 288 283 281 277 276 276 272 269 270 272 271 268 268 274 278 286 290 294 280 261
312 303 297 292 292 294 295 296 296 296 297 298 298 299 299 300 300 302 300 297 296 297 295 290 287 284 280 274 274 274 270 270 269 270 272 270 267 271 276 284 289 281 257
305 294 292 293 293 293 293 291 291 292 292 291 293 294 294 296 296 296 298 297 296 296 292 294 293 291 280 270 268 272 270 269 265 262 264 265 269 271 274 279 281 282 260
299 294 290 289 290 290 290 289 289 289 289 290 289 288 288 289 289 288 292 292 291 292 292 297 296 289 286 279 271 267 269 265 263 261 260 263 267 270 273 275 275 277 264
298 290 286 285 285 286 286 284 282 282 282 283 285 285 285 285 285 286 288 284 285 293 296 297 290 284 283 283 278 273 268 266 269 262 260 262 265 266 266 266 269 273 267
295 293 292 291 288 285 282 279 278 279 280 281 283 284 284 283 283 284 279 280 294 291 285 290 290 285 277 273 275 274 266 268 263 266 264 262 259 255 253 261 268 268 266
301 301 303 301 296 290 286 284 283 281 281 281 280 280 281 279 279 280 283 291 297 295 289 284 285 287 286 282 270 272 271 260 260 264 264 256 249 250 256 260 261 263 263
308 309 305 302 302 300 295 290 286 286 287 286 284 282 279 279 280 283 295 299 296 294 290 290 287 284 281 281 275 271 271 262 258 258 260 255 250 247 253 255 256 259 260
303 302 302 305 306 304 300 295 290 287 287 285 283 284 284 284 288 291 300 295 293 292 289 287 284 284 284 280 273 272 273 260 254 252 255 250 245 246 249 252 254 257 258
303 305 305 306 307 307 305 301 294 291 291 292 289 286 288 290 292 297 295 300 299 297 288 289 285 283 281 277 274 266 262 260 254 249 246 246 241 240 244 248 252 252 254
306 306 306 306 307 307 305 302 298 295 292 289 289 294 297 298 301 301 295 295 294 292 290 287 284 282 281 278 276 272 265 258 252 248 247 245 243 242 242 244 249 248 248
304 305 305 307 307 306 304 303 299 296 294 297 300 299 297 302 298 299 297 298 300 299 295 292 290 286 283 279 276 271 267 262 257 250 246 244 243 240 241 241 242 245 242
303 303 304 304 305 305 303 300 299 300 301 300 300 304 305 297 297 298 299 299 298 298 295 292 291 291 289 284 278 273 265 257 253 252 250 246 244 244 241 240 238 241 242
298 298 301 301 299 297 297 300 298 299 300 302 299 293 300 302 305 306 306 304 300 296 295 294 290 283 282 285 281 274 269 263 255 253 249 248 242 241 241 239 235 237 239
295 298 302 299 295 295 296 295 298 296 292 300 302 303 306 309 308 309 310 307 305 303 299 296 290 281 277 282 285 280 271 262 255 250 247 244 243 242 238 237 234 234 236
299 299 297 293 292 292 293 293 289 296 306 303 307 309 310 312 317 318 316 314 314 309 304 301 295 287 283 282 280 275 268 259 252 248 244 242 239 239 240 237 235 233 235
296 291 290 289 287 288 284 285 297 299 300 309 312 314 322 324 323 324 322 320 318 310 306 302 296 290 285 281 273 262 256 249 246 245 242 238 238 234 236 238 236 232 232
292 291 289 287 287 283 283 291 289 293 305 311 317 324 325 327 329 329 331 331 324 321 318 311 304 298 291 283 274 262 249 240 236 238 241 237 234 234 233 234 235 232 231
292 289 282 285 284 283 283 271 282 299 308 316 322 325 327 330 333 336 337 336 329 327 322 315 310 304 296 288 279 268 251 234 231 231 236 238 233 230 231 230 232 232 230
Height
3148 3146 3143 3141 3139 3136 3134 3131 3128 3126 3123 3120 3118 3115 3113 3111 3109 3107 3107 3106 3103 3101 3099 3097 3095 3094 3093 3090 3087 3085 3083 3079 3076 3080 3077 3072 3068 3063 3060 3055 3051 3049 3047
3143 3140 3137 3136 3133 3131 3129 3126 3122 3120 3117 3114 3112 3109 3106 3104 3101 3098 3097 3096 3095 3094 3093 3089 3088 3085 3084 3082 3080 3077 3074 3073 3070 3070 3071 3068 3063 3058 3055 3051 3046 3043 3041
3137 3135 3133 3131 3129 3126 3124 3121 3118 3115 3112 3109 3106 3104 3102 3099 3097 3094 3091 3089 3087 3085 3083 3082 3081 3078 3077 3075 3072 3069 3067 3065 3063 3061 3061 3060 3057 3053 3049 3046 3041 3038 3036
3133 3130 3127 3125 3123 3121 3119 3116 3113 3110 3107 3104 3101 3098 3096 3092 3089 3086 3084 3081 3079 3078 3075 3073 3072 3069 3068 3065 3063 3061 3059 3056 3055 3053 3052 3051 3049 3046 3042 3040 3037 3033 3030
3129 3125 3122 3120 3118 3115 3113 3110 3108 3105 3102 3099 3096 3092 3089 3087 3083 3080 3077 3074 3071 3069 3066 3064 3062 3060 3058 3056 3053 3053 3050 3048 3045 3045 3044 3043 3041 3038 3035 3034 3031 3028 3025
3124 3120 3117 3114 3112 3109 3106 3104 3101 3098 3095 3092 3089 3086 3083 3080 3077 3072 3068 3066 3063 3061 3059 3055 3052 3050 3048 3046 3043 3041 3041 3038 3038 3036 3036 3035 3034 3031 3028 3026 3025 3023 3020
3118 3115 3111 3108 3106 3102 3099 3097 3093 3090 3086 3083 3080 3078 3076 3073 3069 3065 3060 3056 3054 3051 3049 3047 3044 3043 3039 3038 3035 3031 3028 3027 3028 3028 3026 3027 3025 3023 3021 3019 3017 3016 3015
3112 3109 3105 3101 3098 3094 3091 3089 3085 3081 3078 3076 3073 3070 3067 3064 3060 3056 3050 3045 3043 3042 3038 3036 3033 3032 3031 3026 3024 3022 3019 3017 3019 3019 3019 3019 3017 3015 3014 3012 3010 3009 3009
3104 3100 3097 3092 3089 3086 3083 3080 3076 3072 3069 3066 3064 3061 3057 3056 3051 3045 3040 3034 3030 3030 3028 3025 3022 3019 3017 3015 3010 3011 3011 3010 3009 3010 3008 3008 3008 3008 3006 3005 3004 3002 3003
3092 3089 3087 3083 3079 3076 3073 3070 3067 3062 3058 3055 3053 3051 3047 3044 3041 3036 3030 3024 3020 3018 3016 3013 3011 3008 3005 3000 2995 2997 2999 3002 2999 2999 2998 2998 2999 2998 2998 2998 2997 2995 2995
3081 3078 3076 3072 3068 3065 3062 3058 3054 3051 3047 3045 3041 3039 3035 3032 3030 3025 3021 3013 3008 3004 3002 3001 2998 2996 2993 2991 2987 2983 2988 2990 2988 2988 2988 2988 2990 2991 2990 2989 2989 2988 2988
3070 3065 3063 3060 3056 3053 3048 3044 3040 3036 3033 3030 3028 3025 3023 3020 3016 3013 3009 3003 2998 2992 2990 2987 2983 2982 2981 2979 2977 2976 2978 2978 2978 2978 2979 2980 2982 2983 2983 2981 2981 2981 2981
3059 3056 3052 3048 3044 3039 3033 3028 3024 3021 3017 3015 3013 3010 3009 3008 3004 2998 2991 2989 2986 2980 2976 2972 2971 2969 2966 2966 2966 2967 2966 2968 2966 2968 2970 2972 2974 2975 2972 2972 2973 2973 2974
3047 3043 3040 3035 3031 3027 3022 3018 3013 3009 3006 3003 2997 2994 2992 2992 2989 2984 2981 2977 2972 2966 2963 2958 2958 2957 2956 2955 2955 2954 2955 2956 2957 2957 2961 2963 2962 2963 2965 2966 2966 2965 2966
3034 3031 3027 3022 3019 3015 3010 3005 2999 2997 2993 2988 2986 2982 2978 2975 2976 2970 2968 2964 2960 2955 2951 2950 2949 2948 2947 2946 2945 2944 2944 2944 2946 2947 2950 2953 2954 2954 2956 2958 2958 2958 2959
3026 3021 3017 3012 3007 3002 2996 2993 2989 2984 2980 2976 2972 2968 2969 2965 2963 2960 2956 2951 2948 2945 2942 2940 2939 2938 2936 2935 2933 2933 2934 2935 2935 2936 2938 2942 2944 2945 2946 2949 2949 2951 2952
3016 3011 3006 3001 2996 2991 2986 2981 2978 2974 2971 2967 2965 2963 2957 2956 2952 2949 2945 2941 2938 2936 2932 2930 2929 2927 2926 2925 2923 2922 2923 2924 2925 2925 2926 2930 2933 2935 2936 2939 2941 2943 2945
3004 3000 2995 2990 2985 2981 2976 2972 2969 2966 2965 2961 2956 2952 2950 2946 2942 2939 2934 2931 2929 2926 2921 2918 2917 2915 2915 2915 2914 2913 2913 2913 2914 2914 2916 2920 2923 2925 2926 2929 2933 2936 2937
2994 2991 2986 2981 2975 2971 2966 2962 2959 2956 2953 2951 2948 2944 2940 2938 2934 2929 2925 2921 2919 2917 2913 2910 2907 2905 2903 2903 2902 2903 2903 2904 2904 2905 2906 2909 2912 2915 2918 2919 2924 2927 2929
2984 2980 2975 2971 2966 2961 2958 2954 2950 2947 2944 2941 2938 2936 2933 2930 2926 2922 2919 2915 2911 2908 2905 2902 2899 2896 2893 2892 2891 2892 2894 2894 2894 2896 2897 2899 2902 2905 2908 2910 2914 2917 2921
2974 2970 2966 2961 2957 2952 2949 2945 2943 2940 2936 2934 2932 2929 2926 2923 2920 2916 2912 2907 2903 2900 2896 2892 2889 2886 2884 2883 2882 2880 2881 2883 2885 2886 2888 2890 2893 2895 2898 2901 2905 2908 2912
2965 2960 2956 2951 2947 2944 2941 2937 2935 2932 2930 2928 2926 2923 2920 2916 2913 2909 2904 2899 2895 2889 2884 2880 2877 2875 2873 2873 2872 2870 2870 2871 2874 2876 2878 2880 2883 2886 2887 2891 2895 2899 2903
2954 2950 2946 2942 2939 2936 2933 2931 2928 2926 2925 2923 2921 2918 2915 2911 2906 2901 2897 2891 2885 2879 2873 2868 2865 2863 2861 2858 2857 2857 2857 2859 2862 2864 2866 2869 2871 2875 2879 2882 2886 2890 2894
2943 2939 2936 2933 2930 2929 2927 2925 2923 2922 2920 2918 2916 2913 2909 2905 2900 2895 2889 2883 2875 2869 2864 2857 2850 2844 2840 2838 2836 2839 2842 2846 2849 2853 2855 2858 2861 2865 2869 2873 2878 2882 2885
2934 2931 2930 2929 2926 2923 2922 2920 2918 2917 2916 2914 2911 2908 2904 2900 2895 2888 2881 2872 2864 2857 2848 2840 2834 2830 2826 2824 2823 2823 2827 2832 2836 2841 2845 2848 2852 2856 2860 2864 2870 2874 2878
2927 2925 2923 2922 2921 2919 2918 2916 2914 2913 2912 2910 2906 2904 2900 2895 2889 2882 2873 2864 2855 2847 2838 2831 2825 2821 2817 2815 2814 2814 2816 2820 2826 2830 2835 2839 2843 2847 2851 2856 2861 2866 2870